Theta_e
321 321 320 320 319 318 318 318 317 317 317 317 317 317 317 316 315 315 314 314 313 313 312 310 310 309 309 308 309 311 311 313 313 313 312 311 311 311 310 310 310 308 305 304 303 302 299 296 291 287 289 291
320 320 320 320 319 318 318 317 317 317 316 317 317 317 317 316 316 315 314 314 314 313 311 310 310 309 308 308 309 310 311 312 312 312 311 310 311 310 310 309 309 307 305 304 303 303 300 298 293 287 287 291
320 320 320 320 319 318 318 317 317 316 316 317 317 316 316 316 315 315 314 313 313 312 311 311 310 309 308 308 309 309 310 311 311 311 311 310 310 310 309 309 309 307 306 304 303 303 302 298 291 287 288 290
319 319 319 319 320 319 317 317 317 316 316 316 316 316 316 316 315 314 314 312 312 312 311 310 310 309 308 309 309 309 310 310 311 311 310 310 309 309 308 308 308 306 305 304 303 303 301 297 290 288 290 290
319 319 319 319 319 319 317 317 316 316 316 315 316 316 315 315 315 314 313 312 312 312 311 310 309 309 308 309 310 309 309 310 310 310 309 309 308 307 307 307 307 306 304 303 302 301 300 297 291 288 290 290
318 319 318 318 318 318 317 317 316 316 316 315 315 315 315 315 315 314 313 312 312 311 311 310 309 308 308 308 310 310 309 310 309 309 309 308 307 307 306 306 306 304 303 301 301 300 299 297 291 288 290 289
315 316 318 319 318 317 317 317 316 316 315 315 315 314 315 315 315 314 313 312 311 311 310 310 310 308 308 308 309 309 309 309 309 308 308 308 307 307 306 305 304 302 301 301 300 299 299 297 291 289 289 288
311 313 315 317 318 317 317 317 316 316 316 315 315 314 314 315 315 314 313 312 311 311 310 310 310 309 307 307 309 309 308 309 308 308 308 308 307 307 306 304 304 302 301 300 300 299 298 296 292 289 288 287
308 309 311 313 315 316 317 317 316 316 316 315 314 314 314 314 315 314 313 312 312 311 311 310 310 309 307 306 308 309 308 308 307 308 308 307 307 306 305 304 303 302 301 300 299 299 298 296 293 290 288 287
305 307 308 309 311 313 315 316 316 316 315 315 314 313 313 314 315 314 313 312 312 311 310 310 310 309 308 306 307 308 308 307 307 307 307 307 307 306 305 304 303 302 301 300 299 298 297 296 292 290 288 287
303 305 306 307 309 310 312 314 315 315 315 315 314 314 313 314 314 314 313 313 312 312 311 310 310 309 308 306 306 307 308 307 307 307 306 307 306 305 305 304 303 302 301 299 298 297 297 295 291 289 288 287
301 303 304 305 306 307 309 311 313 314 315 314 314 314 313 314 314 314 313 313 312 312 311 310 309 309 308 307 306 306 307 307 307 306 306 306 306 305 304 303 303 301 300 299 297 296 295 293 289 288 288 287
300 300 301 302 303 305 306 308 310 312 313 314 314 314 314 314 314 314 313 312 312 312 311 310 309 309 308 307 306 306 306 306 306 306 305 305 305 305 304 303 302 301 300 299 297 296 294 291 289 288 288 287
298 299 299 300 301 302 304 305 306 308 310 312 313 313 313 313 313 314 313 312 312 312 312 310 309 309 309 308 307 306 306 306 305 305 305 305 305 305 304 303 302 301 300 298 296 294 292 290 289 288 288 287
296 297 298 299 299 301 302 302 304 305 307 309 310 312 312 313 313 313 313 312 312 312 311 310 309 308 308 308 307 306 305 305 305 304 304 304 304 304 304 303 302 301 300 298 295 293 291 290 289 289 288 288
295 295 297 297 298 299 300 301 302 303 304 305 307 309 310 311 312 312 312 312 311 311 311 310 309 308 308 307 307 305 305 305 305 304 304 304 304 304 303 302 301 300 299 297 295 294 292 291 290 290 289 288
294 294 294 295 297 298 298 299 300 301 302 303 304 305 307 308 309 311 311 311 311 311 310 310 309 308 307 307 306 305 304 304 304 304 303 303 303 303 302 301 300 299 298 297 296 295 294 292 291 290 289 288
294 294 294 294 294 296 297 298 298 299 300 302 303 303 304 305 306 307 309 310 310 310 310 309 309 308 307 306 306 305 303 303 303 303 303 303 303 302 301 300 299 298 296 296 295 294 294 293 292 290 288 287
294 294 294 294 294 294 295 297 298 298 299 300 301 302 303 303 304 305 306 308 309 309 309 309 309 308 307 306 305 304 304 303 302 302 303 302 302 301 300 299 297 297 296 295 294 293 293 292 291 289 288 287
293 294 294 294 294 294 293 294 296 297 298 298 299 300 301 302 302 303 303 305 307 308 308 308 308 308 307 306 305 304 303 303 301 301 302 301 301 300 298 298 297 296 295 294 293 293 292 291 290 288 287 287
292 293 293 293 294 295 294 293 294 295 297 297 298 298 299 300 301 302 302 302 304 306 306 307 307 307 307 306 305 304 303 302 300 300 300 300 300 299 297 297 296 295 294 294 292 291 291 290 289 288 287 286
292 292 292 292 293 294 294 294 294 294 295 296 297 297 297 298 298 300 300 301 301 302 304 305 305 306 306 306 305 304 303 301 300 299 299 298 299 299 297 296 296 294 293 293 291 290 290 289 288 287 287 286
292 292 291 291 292 293 293 293 294 294 294 294 295 296 297 296 296 297 298 299 299 299 300 302 303 304 304 304 304 304 303 301 300 299 298 297 297 297 297 296 295 293 292 291 290 289 289 288 288 287 287 286
291 291 291 291 291 291 291 292 292 293 294 293 293 294 295 296 296 296 296 296 297 297 298 299 300 302 302 302 303 303 302 300 299 298 297 296 296 295 295 294 293 292 291 290 289 289 288 288 287 287 287 286
291 291 291 290 290 290 290 291 291 292 293 293 293 293 294 294 294 295 295 295 295 295 296 297 298 299 300 301 301 302 301 300 299 298 297 296 295 294 293 293 292 291 290 289 288 288 288 287 287 287 287 286
290 290 290 290 290 290 290 290 290 291 291 292 292 293 293 293 293 293 293 294 295 295 295 295 296 297 299 299 300 300 300 299 298 298 297 295 294 293 293 292 291 291 290 288 288 287 287 287 287 287 287 286
290 290 290 290 289 289 289 289 289 290 290 290 291 292 293 293 293 292 292 293 293 294 294 294 294 295 296 297 298 298 298 299 298 297 296 295 294 293 292 291 291 290 290 289 288 287 287 287 286 286 286 286
289 289 289 289 289 289 289 289 289 289 289 290 290 291 292 293 294 293 292 292 292 293 293 293 294 294 295 295 296 297 297 298 298 297 296 295 294 293 291 291 290 290 290 289 288 288 288 287 286 287 286 285
289 289 289 289 289 289 289 289 289 289 289 289 290 290 291 292 293 293 293 293 292 292 292 293 293 293 294 294 294 295 296 296 297 297 296 295 294 293 292 291 290 290 289 289 289 289 289 288 287 288 287 285
289 289 289 289 289 289 289 289 288 289 289 289 290 290 290 290 291 291 292 292 292 292 292 292 293 293 293 293 293 294 294 294 295 296 296 295 294 293 292 292 290 290 289 289 290 290 290 291 290 289 287 286
289 289 288 288 288 288 288 288 288 288 289 289 289 289 289 290 290 290 290 291 291 292 292 292 292 292 293 293 292 293 293 293 294 295 295 295 294 293 292 292 291 290 289 289 289 289 290 291 292 291 288 288
Wind_Speed
17 17 17 18 17 18 18 19 19 19 18 18 18 18 19 19 19 19 19 19 19 19 19 18 18 18 17 18 18 17 18 17 17 17 16 16 15 15 14 13 13 15 16 15 12 11 7 2 1 3 6 7
17 17 17 18 18 18 18 19 19 19 20 20 19 20 20 20 21 21 21 20 20 20 19 19 19 19 18 18 18 18 18 18 18 18 17 17 16 16 15 14 16 17 15 15 14 14 10 6 3 1 5 6
18 19 19 19 20 20 19 19 20 20 21 21 20 21 21 21 22 23 22 22 21 21 20 20 20 20 20 19 19 19 19 19 18 18 18 17 17 17 15 15 17 16 15 14 13 14 13 9 4 2 5 5
17 19 19 20 21 21 21 21 21 21 22 22 20 20 21 21 22 23 24 24 23 22 22 22 22 21 21 20 19 20 19 19 19 18 18 18 18 18 17 16 15 16 15 13 11 13 14 9 5 3 5 2
16 17 19 21 22 22 22 22 23 23 23 23 22 21 21 21 21 21 22 24 25 24 23 23 24 23 22 22 21 20 20 20 20 20 19 19 19 19 18 16 15 16 15 12 10 11 15 11 6 3 5 3
16 16 17 19 21 22 24 24 24 25 24 24 24 23 22 22 24 24 23 23 24 25 24 24 24 25 24 23 22 22 21 21 21 20 20 20 19 19 18 17 16 17 16 14 12 10 15 13 8 5 6 6
13 15 14 15 19 21 24 25 25 25 26 26 26 26 24 23 24 26 26 25 24 24 25 24 23 25 26 25 24 24 23 22 22 21 21 21 20 20 20 20 19 18 17 17 14 11 16 14 9 7 8 7
13 14 13 14 17 19 21 24 25 25 26 27 27 28 27 24 22 24 25 25 25 25 26 26 25 25 27 27 25 25 25 24 24 23 23 23 22 22 22 22 21 19 17 18 17 16 19 16 11 10 9 8
14 15 15 14 15 17 19 22 24 25 26 27 27 28 29 27 24 23 25 25 26 27 28 28 28 27 28 29 26 25 27 27 26 25 25 25 24 25 25 24 23 23 20 19 19 20 22 18 14 13 11 9
14 14 15 15 15 16 17 20 22 24 25 26 28 29 30 29 27 25 26 27 27 29 31 30 29 30 30 32 28 25 29 30 28 28 27 27 27 27 27 26 25 25 25 23 22 24 26 21 15 14 13 10
16 14 13 14 16 17 17 18 19 22 24 25 27 29 30 29 28 28 29 29 28 29 32 32 31 32 32 34 33 29 30 33 32 31 30 28 27 28 29 28 27 26 26 25 25 27 26 20 16 16 14 11
20 18 15 14 15 17 18 18 19 19 22 24 25 27 30 30 30 30 31 31 29 28 31 33 31 32 33 35 37 33 31 33 34 34 33 31 29 29 30 30 28 28 27 26 26 27 23 19 18 18 16 13
20 20 19 17 17 17 17 18 20 19 21 23 24 26 28 30 31 31 31 32 31 29 31 34 32 31 33 36 37 36 32 32 35 35 35 35 33 31 31 31 31 30 29 28 27 25 22 20 21 21 18 17
18 19 19 19 18 17 18 18 19 19 21 22 23 25 26 28 30 31 30 31 33 31 32 35 33 32 33 36 38 37 35 34 34 35 36 37 37 35 34 33 34 33 33 30 28 25 23 23 24 22 20 20
18 17 17 18 17 15 17 19 20 20 20 21 22 23 24 26 29 31 31 29 29 29 30 34 34 33 33 36 38 38 37 36 36 35 35 37 40 40 38 37 36 35 35 33 31 28 27 26 26 24 23 23
18 18 17 17 16 15 15 15 17 19 20 21 22 22 23 24 25 29 32 30 27 27 28 33 34 33 34 36 38 40 38 37 37 37 33 33 37 40 38 37 36 36 36 35 34 32 30 29 27 26 25 24
16 17 17 16 16 16 15 13 13 15 18 20 22 23 24 24 23 23 27 31 29 27 26 28 33 34 35 37 38 39 39 37 36 37 35 31 33 36 36 36 35 35 36 36 36 34 33 31 29 28 26 26
15 15 15 15 15 15 16 16 15 13 14 16 19 21 23 24 25 23 23 26 28 28 26 25 29 34 35 36 37 38 39 38 37 38 37 34 33 35 36 36 36 36 36 36 36 34 33 32 30 29 27 26
14 14 14 14 14 14 15 16 17 15 14 14 16 19 21 22 24 24 24 25 26 26 26 25 26 30 34 35 36 38 39 39 39 39 38 37 36 36 37 37 36 37 37 36 35 35 33 33 31 29 28 27
15 13 14 14 14 14 14 14 16 16 15 14 15 16 19 21 22 22 23 24 26 28 26 25 25 27 32 34 36 37 38 38 39 40 39 38 38 38 38 37 36 37 38 36 35 35 34 33 31 30 29 29
15 13 13 14 14 14 14 14 15 15 15 14 14 15 16 19 20 22 23 21 21 26 28 27 26 26 28 32 36 37 38 39 40 41 40 39 39 39 37 37 37 36 37 36 34 33 33 32 32 32 31 30
15 13 13 14 14 14 15 15 15 16 16 15 14 15 15 16 18 21 24 23 20 21 25 29 30 28 26 28 35 39 40 41 42 41 41 40 40 40 39 38 38 36 36 36 33 32 33 33 32 32 32 31
15 13 13 15 15 15 15 16 16 16 18 18 17 16 16 15 16 18 22 24 23 22 22 25 29 31 28 26 30 39 41 40 42 41 41 40 39 40 40 39 39 37 35 34 32 31 31 32 32 31 30 30
15 14 14 15 15 15 16 17 18 18 19 19 18 18 17 15 15 17 18 20 22 23 23 22 23 27 30 28 27 34 40 40 41 42 41 39 38 38 37 37 37 35 33 31 28 28 29 28 29 29 29 29
17 15 15 14 14 15 16 18 20 20 20 19 18 20 21 20 19 19 18 18 18 20 23 23 22 23 26 28 27 28 35 39 39 40 41 39 38 38 36 34 35 35 33 28 22 19 22 24 25 26 27 28
19 18 17 17 17 16 16 16 18 20 21 22 22 23 25 25 23 22 21 20 19 19 20 23 25 25 26 28 28 25 26 33 36 37 39 38 36 37 38 35 34 37 33 25 20 15 12 14 18 23 26 27
21 21 21 22 23 22 19 17 17 19 21 24 26 26 27 29 26 22 21 21 20 21 21 22 23 26 29 30 31 29 26 27 30 33 36 38 36 34 34 33 34 39 38 28 23 16 8 7 8 12 19 25
23 23 23 24 26 26 24 21 17 17 19 21 25 26 25 27 27 22 21 20 20 21 22 22 22 22 26 30 32 31 29 27 27 30 32 36 37 34 30 29 32 39 43 35 27 15 4 5 6 5 11 16
23 23 24 25 26 26 24 21 17 15 16 17 21 24 23 21 21 21 22 21 20 21 21 21 23 24 24 25 27 30 29 28 27 28 30 31 34 35 32 29 28 34 41 41 38 26 10 7 6 6 8 10
24 23 24 24 24 23 21 20 19 18 18 17 18 21 24 24 23 22 21 21 22 23 23 22 21 23 26 26 26 26 27 28 27 27 30 31 31 34 35 31 25 28 36 41 42 38 28 20 12 7 12 9
25 25 24 24 24 24 22 21 22 22 21 20 19 20 22 25 26 25 24 23 23 22 23 24 22 19 22 27 28 27 26 27 26 26 29 31 28 28 31 31 26 27 32 33 36 39 37 27 16 15 18 10
Wind_Direction
220 222 220 218 215 214 215 215 215 214 215 217 218 218 216 216 215 213 213 212 209 208 208 208 209 208 208 207 210 210 205 204 199 198 198 198 200 201 201 200 190 170 168 169 177 214 226 234 30 76 100 96
225 226 225 223 220 218 219 219 217 214 215 217 217 218 218 216 214 213 212 211 209 209 210 209 208 207 208 207 209 208 206 206 200 198 198 200 200 199 202 196 179 167 174 181 193 224 237 253 276 102 113 109
231 232 228 226 223 220 219 220 220 219 219 221 221 219 219 218 215 214 213 211 211 211 210 210 208 208 208 207 208 208 207 207 204 203 199 201 201 200 201 187 177 174 185 199 208 231 244 246 236 155 120 129
238 238 235 230 228 223 219 220 221 219 221 224 226 224 224 223 216 215 213 211 212 211 210 209 208 207 207 207 207 208 209 206 204 202 199 201 203 203 200 184 179 176 185 204 211 232 236 219 212 154 120 147
243 243 242 236 231 229 223 222 223 220 221 223 225 226 228 228 224 220 215 212 213 212 213 211 209 207 206 206 205 206 208 208 204 202 202 203 205 206 204 197 190 177 174 181 182 225 229 211 224 173 152 213
254 252 254 245 235 233 229 226 225 222 221 222 223 224 226 228 226 226 223 218 215 213 214 216 212 207 206 205 204 205 205 208 206 204 204 204 206 205 206 207 196 179 174 173 170 217 234 223 227 201 192 218
274 266 265 257 241 233 231 230 228 226 223 222 222 221 225 229 225 223 223 219 216 214 216 219 218 212 208 205 204 204 204 207 205 204 205 203 205 202 205 208 200 187 182 184 179 211 240 230 217 216 218 224
295 286 275 264 249 237 234 232 231 230 227 225 223 220 222 228 225 220 218 218 221 223 223 222 223 218 210 206 206 204 203 205 202 203 204 202 202 200 206 211 208 204 197 197 194 208 233 230 223 231 231 232
307 299 290 279 267 254 244 237 232 230 229 227 226 223 222 225 223 218 217 220 224 225 222 219 222 220 212 208 206 205 203 202 201 201 201 201 202 201 208 214 214 215 214 213 209 213 226 229 233 236 237 237
324 306 296 289 282 274 261 249 238 230 229 228 227 225 224 225 223 219 217 220 223 222 216 213 219 221 216 210 205 204 203 201 201 201 199 199 201 202 208 213 214 218 220 221 219 217 222 227 230 230 235 233
347 330 311 297 286 283 276 267 252 236 230 228 227 226 225 226 224 221 219 219 220 220 215 210 216 220 217 211 207 206 202 201 202 202 200 200 200 202 208 210 212 218 220 219 216 215 220 224 223 223 231 225
357 350 338 323 306 296 287 281 273 256 242 234 229 226 225 226 225 223 221 218 217 216 214 209 212 218 217 213 211 210 205 201 202 203 203 202 201 203 207 210 211 214 213 213 213 214 219 217 214 220 227 221
2 356 350 341 330 318 305 293 285 276 263 250 240 232 227 226 225 225 222 219 217 215 213 210 210 216 217 214 213 213 210 205 202 203 203 202 202 204 206 206 208 208 209 211 213 215 215 208 210 218 221 220
4 359 355 348 338 329 322 312 299 288 277 267 257 248 240 234 230 229 227 222 218 215 211 208 208 214 217 215 213 213 212 211 204 201 202 201 203 205 205 204 206 206 207 209 209 210 210 208 213 218 219 222
358 357 354 350 345 338 328 320 313 304 293 283 273 264 256 248 240 236 235 230 224 220 213 207 207 213 216 214 212 211 211 212 209 203 201 202 203 204 205 204 204 205 206 206 206 208 210 213 216 219 221 224
352 353 349 345 344 340 331 318 313 310 304 296 286 277 269 261 252 244 242 239 232 228 219 210 207 211 215 214 211 210 209 210 211 208 205 204 202 202 203 202 202 205 206 206 208 210 213 216 219 221 224 225
343 347 346 341 337 333 330 323 312 302 298 297 293 287 280 273 266 256 249 244 239 234 229 218 210 209 213 214 211 210 209 208 208 207 207 206 203 201 200 199 200 202 205 209 211 213 215 217 220 222 224 225
333 337 339 336 334 329 325 323 318 304 290 287 288 289 286 282 277 271 261 251 246 241 237 231 218 211 212 214 212 210 209 207 206 204 204 205 203 202 200 199 200 200 203 208 211 213 215 217 220 222 222 224
324 326 329 328 326 323 320 316 314 310 300 288 280 280 281 284 284 279 273 262 252 246 242 239 230 218 213 214 213 210 209 207 205 204 203 203 201 199 200 200 200 202 203 205 209 212 214 216 217 218 219 220
318 317 320 319 315 312 316 312 308 307 304 296 284 275 271 275 281 280 281 274 256 249 246 242 240 228 218 215 213 211 210 207 205 204 202 202 200 196 196 198 200 203 205 205 207 210 212 214 214 215 215 216
314 312 314 315 309 305 309 306 301 300 300 298 292 285 273 267 269 269 277 283 269 255 250 247 247 241 228 220 216 213 210 208 207 205 202 203 203 198 195 196 199 201 203 204 206 208 210 211 212 212 213 214
309 309 312 311 306 301 303 301 296 293 291 290 288 289 282 271 265 259 261 271 276 270 261 253 251 249 242 228 219 215 212 210 208 207 205 203 204 202 199 197 198 200 201 202 204 206 208 209 210 212 212 213
305 306 310 309 305 303 301 299 296 291 289 287 285 286 282 272 266 259 257 259 265 271 270 262 253 250 250 243 227 216 212 210 207 206 206 205 204 203 203 203 201 201 199 199 201 203 205 207 208 210 212 213
303 304 308 306 305 306 304 302 299 294 292 288 282 282 280 273 267 264 260 256 257 261 266 267 260 253 251 252 244 223 213 210 208 206 206 205 204 202 203 206 204 201 198 195 197 201 202 204 207 208 211 214
301 299 298 298 298 300 302 302 302 299 297 291 283 280 278 278 278 273 267 260 255 255 258 261 262 258 254 254 256 240 221 215 212 209 207 206 205 203 202 203 204 201 194 186 188 195 196 198 204 208 210 213
303 301 297 297 295 292 292 294 297 299 298 297 292 284 278 280 282 278 275 270 260 254 252 254 255 254 252 251 254 255 240 224 217 213 210 207 204 204 203 204 203 196 189 183 183 178 174 189 202 208 211 213
298 297 295 296 294 290 285 280 283 288 292 295 292 289 283 275 274 275 277 276 270 262 255 252 254 252 251 250 249 252 254 241 227 220 215 210 208 206 205 207 204 196 193 188 175 163 163 184 189 205 214 215
294 297 299 299 297 294 289 281 277 278 283 287 287 290 288 272 268 272 274 276 278 274 265 254 252 253 253 254 250 247 252 252 240 230 221 215 212 208 204 206 205 201 199 190 174 164 162 155 156 210 213 207
302 305 307 304 300 298 294 287 284 278 276 281 282 287 292 284 281 283 276 275 280 279 274 264 254 249 248 252 253 249 249 249 246 240 232 224 219 214 209 207 205 202 201 197 190 186 175 153 180 223 176 168
309 309 308 305 304 302 299 294 291 286 281 279 276 278 284 287 290 291 284 283 286 280 274 272 267 254 246 246 250 250 249 247 246 243 237 232 227 221 217 212 207 204 203 203 201 199 198 197 199 183 151 141
315 312 308 305 303 301 299 296 293 291 289 283 277 274 277 282 283 285 286 287 289 285 276 272 272 266 253 248 247 248 250 248 244 243 238 233 234 233 226 217 211 209 206 204 207 209 209 210 206 181 171 167